[Iaude] MPEC L131: 2024 LE4 [a=1.95,e=0.63,i=6.9,H=25.1]

mpec at cfa.harvard.edu mpec at cfa.harvard.edu
Thu Jun 13 06:28:57 EDT 2024


M.P.E.C. 2024-L131                                Issued 2024 June 13, 10:27 UT

     The Minor Planet Electronic Circulars contain information on unusual
         minor planets, routine data on comets and natural satellites,
         and occasional editorial announcements.  They are published
    on behalf of Division F of the International Astronomical Union by the
          Minor Planet Center, Smithsonian Astrophysical Observatory,
                          Cambridge, MA 02138, U.S.A.
			  
             Prepared using the Tamkin Foundation Computer Network

                              MPC at CFA.HARVARD.EDU
            URL https://www.minorplanetcenter.net/    ISSN 1523-6714

                                    2024 LE4                                    


Observations:
     K24L04E* C2024 06 11.36238815 47 25.076-13 43 18.15         19.70wXEL131F52
     K24L04E  C2024 06 11.38742115 47 39.700-13 47 55.32         19.51wXEL131F52
     K24L04E  C2024 06 11.39992915 47 47.006-13 50 13.14         19.66wXEL131F52
     K24L04E  C2024 06 11.46899915 48 27.174-14 02 42.37         19.97GVEL131F51
     K24L04E  C2024 06 11.46964615 48 27.565-14 02 49.55         19.81GVEL131F51
     K24L04E KC2024 06 11.49374915 48 45.972-14 05 03.19         20.0 GVEL131474
     K24L04E KC2024 06 11.49653615 48 47.611-14 05 32.68         20.2 GVEL131474
     K24L04E KC2024 06 11.49932315 48 49.246-14 06 03.17         20.8 GVEL131474
     K24L04E KC2024 06 11.50489815 48 52.440-14 07 02.89         19.8 GVEL131474
     K24L04E KB2024 06 11.58278915 49 40.487-14 23 21.45         26.1 VZEL131Q06
     K24L04E KB2024 06 11.59166215 49 45.542-14 24 54.84         26.2 VZEL131Q06
     K24L04E KB2024 06 11.60053615 49 50.570-14 26 27.22         20.4 VZEL131Q06
     K24L04E KC2024 06 12.14849315 55 05.18 -15 55 24.9          20.4 GVEL131H21
     K24L04E KC2024 06 12.15138315 55 06.61 -15 55 51.0          20.7 GVEL131H21
     K24L04E KC2024 06 12.15427415 55 08.06 -15 56 17.4          21.0 GVEL131H21
     K24L04E KC2024 06 12.15716415 55 09.51 -15 56 43.8          20.8 GVEL131H21
     K24L04E KC2024 06 12.22798115 55 46.855-16 07 09.98         20.06GVEL131I52
     K24L04E KC2024 06 12.23137015 55 48.486-16 07 40.19         19.62GVEL131I52
     K24L04E KC2024 06 12.23475615 55 50.128-16 08 10.28         19.69GVEL131I52
     K24L04E KB2024 06 12.94991916 01 38.94 -17 45 23.5          20.7 GXEL131I93
     K24L04E KB2024 06 12.95960516 01 43.02 -17 46 34.7          20.3 GXEL131I93
     K24L04E KB2024 06 12.97233416 01 48.39 -17 48 09.3          19.8 GXEL131I93
     K24L04E KC2024 06 13.17930216 03 21.33 -18 13 05.4          20.6 GVEL131H21
     K24L04E KC2024 06 13.18219516 03 22.50 -18 13 26.1          20.8 GVEL131H21
     K24L04E KC2024 06 13.18508616 03 23.66 -18 13 46.4          20.9 GVEL131H21

Observer details:
474 Mount John Observatory, Lake Tekapo.  Observers A. C. Gilmore, P. M.
    Kilmartin.  Measurer P. M. Kilmartin.  0.6-m f/6.3 Reflector + CCD.
F51 Pan-STARRS 1, Haleakala.  Observers J. Herman, T. Lowe, P. Minguez, A.
    Schultz, I. Smith.  Measurers K. Chambers, T. de Boer, J. Fairlamb, H.
    Gao, M. Huber, C.-C. Lin, E. Magnier, Y. Ramanjooloo, R. Wainscoat, R.
    Weryk.  1.8-m Ritchey-Chretien + CCD.
F52 Pan-STARRS 2, Haleakala.  Observers J. Herman, T. Lowe, P. Minguez, A.
    Schultz, I. Smith.  Measurers K. Chambers, T. de Boer, J. Fairlamb, H.
    Gao, M. Huber, C.-C. Lin, E. Magnier, Y. Ramanjooloo, R. Wainscoat, R.
    Weryk.  1.8-m Ritchey-Chretien + CCD.
H21 Astronomical Research Observatory, Westfield.  Observer R. Holmes.
    Measurers T. Linder, R. Holmes, L. Horn.  1.3-m f/4.0 astrograph + CCD.
I52 Steward Observatory, Mt. Lemmon Station.  Observer J. B. Fazekas.
    Measurers T. Beuden, V. F. Carvajal, D. Fay, J. B. Fazekas, D. C. Fuls, A.
    R. Gibbs, A. D. Grauer, H. Groeller, J. K. Hogan, R. A. Kowalski, S. M.
    Larson, G. J. Leonard, D. Rankin, R. L. Seaman, F. C. Shelly, K. W.
    Wierzchos.  1.0-m prime focus + CCD.
I93 St Pardon de Conques.  Observer F. Losse.  0.40-m f/3.7 reflector + CMO.
Q06 Tarui Observatory, Tarui.  Observer H. Watanabe.  0.35-m f/1.9 Schmidt-
    Cassegrain + CMO.

Orbital elements:
2024 LE4                                                 Earth MOID = 0.0203 AU
Epoch 2024 Mar. 31.0 TT = JDT 2460400.5                 Veres                   
M 353.26225              (2000.0)            P               Q                  
n   0.36188856     Peri.   94.34645     -0.99118104     -0.05666696             
a   1.9502314      Node    82.43662     +0.00267485     -0.91232641             
e   0.6320128      Incl.    6.94050     +0.13248769     -0.40552359             
P   2.72           H   25.19          G   0.15           U   8                  
Residuals in seconds of arc
240611 F52 (0.4+  0.3-)   240611 Q06  1.1-  0.9+    240612 I52  0.2-  0.0
240611 F52  0.1-  0.1+    240611 Q06  0.3-  0.2+    240612 I93  0.4+  0.2-
240611 F52  0.1+  0.0     240611 Q06  0.2+  0.3+    240612 I93  0.3+  0.6+
240611 F51  0.0   0.1-    240612 H21  0.1-  0.2-    240612 I93  0.4+  0.4+
240611 F51  0.2+  0.3-    240612 H21  0.2-  0.0     240613 H21  0.2-  0.0
240611 474  0.0   0.1+    240612 H21  0.1-  0.2-    240613 H21  0.1-  0.2-
240611 474  0.2+  0.5+    240612 H21  0.1+  0.4-    240613 H21  0.0   0.0
240611 474  0.5+  0.1-    240612 I52  0.0   0.0
240611 474  0.1-  0.2-    240612 I52  0.2-  0.0

Ephemeris:
2024 LE4                 a,e,i = 1.95, 0.63, 7                   q = 0.7177
Date    TT    R. A. (2000) Decl.     Delta      r    Elong.  Phase     V
2024 05 14    05 34 03.1 +37 55 20   0.2414  0.8224    34.3   136.2    28.1
...
2024 05 29    06 53 45.9 +46 57 11   0.08352 0.9504    39.4   137.4    26.2
...
2024 06 06    13 32 57.8 +25 51 03   0.03367 1.0272   110.8    67.4    20.3
...
2024 06 12    15 53 42.7 -15 30 52   0.07631 1.0866   157.9    20.6    20.8
2024 06 13    16 02 01.5 -17 49 58   0.08592 1.0965   159.7    18.8    21.0
2024 06 14    16 08 51.4 -19 40 06   0.09575 1.1065   160.8    17.6    21.2
...
2024 06 20    16 33 20.5 -25 35 32   0.1578  1.1667   161.3    16.2    22.4
...
2024 06 28    16 48 54.9 -28 31 37   0.2461  1.2470   157.1    18.5    23.6
...
2024 07 13    17 06 20.8 -30 17 51   0.4286  1.3951   146.8    23.5    25.2

M. P. C. Staff               (C) Copyright 2024 MPC           M.P.E.C. 2024-L131





More information about the Iaude mailing list